Temperature
20 20 19 18 16 15 13 13 12 12 11 11 10 10 11 10 9 9 9 9 9 9 9 8 8 7 7 7 6 6 5 5 4 3 3 3 3 3 3 3 3 2 2
19 19 19 17 16 15 14 13 12 12 12 12 12 12 11 11 10 9 9 9 9 9 9 9 8 8 7 7 6 6 5 5 4 4 3 2 2 3 3 2 2 2 1
18 18 18 17 16 15 14 13 12 12 12 12 11 10 9 9 9 9 10 10 9 9 9 9 8 8 7 7 7 6 5 5 4 3 3 2 2 1 0 0 1 1 1
17 17 17 16 16 15 14 13 12 12 11 11 10 10 10 11 12 11 11 10 9 9 9 8 8 8 7 7 6 6 5 4 4 3 2 2 2 1 -0 -1 -0 -0 -0
17 17 16 16 15 15 14 13 12 12 11 10 10 10 10 11 10 9 9 9 8 8 8 7 7 7 6 6 6 5 5 4 4 3 3 1 1 -0 -1 -1 -0 -1 -1
17 16 16 16 15 15 14 13 13 12 11 10 10 9 9 9 8 8 8 8 7 7 7 7 6 6 6 5 5 4 3 3 3 3 2 2 1 1 0 -1 -1 -1 -1
16 15 15 15 15 14 14 14 13 12 11 10 9 9 9 8 8 8 7 7 7 7 7 6 6 6 5 4 3 3 2 2 2 2 2 2 1 1 1 -0 -1 -2 -2
15 15 14 14 14 14 13 13 13 12 11 11 10 10 9 8 8 8 7 7 7 7 6 6 5 5 4 4 3 2 1 1 1 1 1 1 1 0 -0 -1 -1 -3 -4
15 14 14 14 13 13 13 13 13 12 12 11 11 10 9 9 9 8 7 7 7 6 5 5 5 4 4 3 2 1 1 0 -0 -0 -0 -0 -0 -1 -1 -1 -2 -3 -5
14 14 13 13 13 13 13 12 12 12 12 11 11 10 10 9 9 8 8 8 7 6 6 5 4 4 3 3 2 1 0 -0 -1 -1 -2 -2 -1 -1 -2 -2 -2 -3 -4
14 13 13 13 13 12 12 12 12 12 11 11 11 10 10 9 9 8 8 8 7 7 6 5 4 4 3 3 2 1 0 -1 -2 -2 -3 -3 -2 -2 -2 -3 -3 -3 -4
13 13 13 12 12 12 12 11 11 11 11 10 10 10 10 9 9 9 8 8 8 7 6 5 4 4 3 2 2 1 -0 -1 -2 -2 -3 -3 -3 -3 -3 -3 -3 -4 -4
13 13 12 12 11 11 11 11 10 10 10 9 9 9 9 9 8 8 8 8 7 7 6 6 5 4 3 2 1 0 -1 -1 -2 -2 -3 -3 -4 -4 -4 -4 -4 -4 -5
13 12 12 11 11 10 10 10 10 9 9 9 8 8 8 8 8 7 7 7 7 6 6 6 5 4 3 2 1 0 -1 -2 -2 -3 -4 -4 -4 -4 -4 -4 -4 -4 -5
12 12 11 10 10 10 9 9 9 8 8 8 8 7 7 7 7 7 6 6 6 6 5 5 4 4 2 2 1 -1 -1 -2 -3 -3 -4 -4 -5 -4 -4 -5 -5 -5 -5
12 11 10 10 9 9 8 8 8 7 7 7 7 7 6 6 6 6 6 5 5 5 5 4 4 3 2 1 -0 -2 -2 -3 -3 -4 -4 -5 -5 -5 -5 -5 -5 -5 -6
10 10 9 9 8 8 7 7 7 7 6 6 6 6 6 5 5 5 5 5 4 4 4 3 3 2 2 1 -1 -3 -3 -4 -4 -5 -5 -6 -6 -6 -5 -5 -5 -6 -6
9 9 8 8 7 7 7 6 6 6 6 6 5 5 4 4 4 3 3 3 3 2 2 2 2 1 1 -0 -2 -3 -4 -4 -5 -5 -6 -6 -6 -6 -5 -5 -5 -5 -5
8 8 7 7 7 6 6 5 5 5 5 5 4 4 3 3 2 2 2 2 1 1 1 1 1 0 0 -1 -2 -3 -4 -5 -5 -6 -6 -6 -6 -6 -6 -6 -6 -5 -5
7 7 7 6 6 6 5 5 5 4 4 3 3 2 2 2 1 1 1 1 0 0 0 -0 -0 -1 -1 -1 -3 -4 -5 -5 -5 -6 -6 -6 -6 -6 -6 -6 -6 -6 -5
6 6 6 5 5 5 4 4 4 3 3 2 2 2 1 1 1 0 0 -0 -0 -1 -1 -1 -1 -1 -2 -2 -3 -4 -5 -5 -6 -6 -6 -6 -6 -6 -6 -6 -6 -6 -6
6 5 5 5 5 4 4 3 3 2 2 1 1 1 0 0 -0 -1 -1 -1 -1 -1 -1 -2 -2 -2 -2 -3 -4 -4 -5 -5 -6 -6 -6 -6 -6 -6 -6 -6 -6 -6 -7
5 4 4 4 4 3 3 2 2 1 1 0 0 -0 -0 -1 -1 -1 -1 -2 -2 -2 -2 -2 -3 -3 -3 -4 -4 -5 -5 -6 -6 -6 -6 -6 -6 -6 -6 -6 -6 -6 -7
4 4 3 3 3 2 2 1 1 0 -0 -1 -1 -1 -1 -1 -1 -2 -2 -2 -2 -3 -3 -3 -3 -3 -4 -4 -5 -5 -6 -6 -6 -6 -6 -6 -6 -6 -6 -6 -6 -6 -7
3 3 2 2 2 1 1 0 -0 -1 -1 -1 -1 -1 -2 -2 -2 -2 -3 -3 -3 -3 -3 -3 -4 -4 -4 -4 -5 -6 -6 -6 -6 -6 -6 -6 -6 -6 -6 -6 -6 -7 -7
2 2 2 1 1 0 -0 -0 -1 -1 -2 -2 -2 -2 -2 -3 -3 -3 -3 -3 -3 -3 -3 -4 -4 -4 -4 -5 -5 -6 -6 -6 -6 -7 -6 -6 -6 -6 -6 -6 -6 -7 -7
Wind_Speed
4 5 14 14 14 14 14 15 16 15 13 12 13 13 13 10 9 11 19 22 22 24 21 14 14 13 10 11 10 8 8 7 5 3 4 6 9 10 8 11 11 12 15
6 4 7 11 12 13 13 14 15 15 14 13 11 8 8 8 8 8 14 21 23 23 23 17 11 12 10 12 13 10 7 7 8 5 3 4 5 8 11 8 8 9 13
8 6 4 8 9 11 13 12 14 15 15 12 7 6 6 6 9 10 12 15 22 23 22 20 15 12 13 13 15 13 13 10 9 7 6 5 7 3 3 8 8 8 7
7 5 3 3 8 10 10 11 12 13 13 13 11 12 13 15 15 11 10 11 18 20 23 21 19 13 12 14 15 15 12 10 8 8 8 6 5 4 3 4 6 8 9
7 5 3 1 4 7 8 10 10 11 12 13 14 13 15 13 9 9 11 13 13 17 20 20 17 15 14 15 14 15 15 14 12 8 6 7 6 5 5 5 5 5 7
8 7 4 2 0 3 5 7 9 10 10 13 14 15 16 13 11 11 12 11 11 12 16 17 16 15 14 15 15 14 16 15 14 12 9 7 6 8 8 10 8 6 6
7 7 7 4 2 1 4 6 8 9 10 11 13 14 15 14 15 13 12 12 11 12 15 17 17 16 14 13 12 14 15 16 15 16 12 12 10 5 8 9 7 7 5
6 7 7 6 4 1 2 4 7 8 9 10 12 12 13 12 12 13 12 13 12 12 12 17 18 17 15 16 14 14 15 13 16 18 16 11 12 10 9 8 7 5 6
7 7 6 6 5 4 1 2 5 7 8 10 10 11 12 12 13 12 12 12 11 10 12 15 17 17 17 17 16 15 17 15 16 16 16 13 11 10 9 8 8 8 7
6 6 5 5 4 3 2 1 3 5 6 8 9 9 10 12 12 12 14 13 13 12 11 13 15 16 17 17 17 15 14 16 16 13 15 15 11 10 10 10 9 10 10
6 5 4 4 4 3 3 2 2 3 4 5 6 7 9 9 10 11 13 13 13 13 13 14 14 16 17 17 18 18 16 18 16 15 16 17 14 12 11 11 10 11 11
3 3 4 5 5 5 5 4 3 3 3 4 5 7 8 8 9 11 12 11 12 12 13 13 14 16 17 17 19 20 19 19 19 19 17 18 15 16 13 12 13 13 12
4 4 5 6 6 7 7 6 4 4 4 4 5 7 8 8 10 10 10 11 11 12 12 13 15 15 15 16 17 18 18 19 19 18 19 18 17 18 16 15 14 13 13
4 4 5 6 7 7 7 6 6 5 5 5 6 8 8 9 10 10 10 10 10 11 12 13 14 14 13 14 15 16 17 17 17 18 18 18 19 19 18 16 16 13 13
6 5 6 7 8 8 8 7 7 6 6 7 8 9 9 9 10 10 10 10 10 12 11 12 13 12 12 13 13 14 16 16 16 17 18 19 24 27 22 17 14 14 13
6 7 9 9 8 8 8 8 7 7 7 8 10 10 10 10 10 11 11 11 11 11 11 12 13 13 13 22 27 20 14 16 17 17 17 19 24 29 34 33 28 23 17
8 9 9 8 8 8 8 8 8 7 8 10 11 11 11 11 11 12 11 12 12 11 12 12 13 14 16 26 27 29 17 16 17 17 15 16 19 26 18 25 32 29 32
10 9 9 8 8 8 9 8 7 8 10 11 12 12 11 12 11 11 12 12 11 11 11 12 12 13 16 25 27 27 19 15 17 17 17 17 17 18 19 16 17 17 17
9 9 8 8 8 9 8 7 9 10 11 12 13 12 10 11 11 12 12 11 11 11 11 10 11 13 15 23 25 25 12 13 16 16 18 19 18 26 29 19 18 18 16
9 9 8 8 9 9 8 9 11 12 12 13 11 10 10 11 12 13 12 11 10 11 11 11 10 12 12 19 23 24 11 13 13 14 17 26 25 27 29 20 17 18 15
9 9 8 8 8 9 10 12 12 12 12 11 11 11 11 12 13 12 11 11 11 11 11 12 11 11 13 17 22 24 12 12 12 13 13 15 28 30 30 25 16 20 15
8 8 8 9 9 10 11 13 14 13 12 11 12 12 12 12 11 12 12 11 11 11 11 11 11 9 10 15 18 23 23 19 14 13 11 13 24 27 28 22 21 24 20
8 7 8 10 11 10 10 15 16 13 12 12 12 12 12 12 11 12 13 11 10 10 10 10 11 9 7 10 20 22 23 24 15 12 17 19 22 23 19 23 23 18 11
8 8 10 12 14 13 13 14 14 13 13 13 13 12 13 13 12 10 9 10 10 10 11 11 11 10 7 6 7 8 11 16 16 12 16 22 22 18 16 15 13 9 8
8 9 10 13 16 15 13 13 13 13 13 13 13 12 12 13 12 11 10 12 11 12 13 11 10 10 10 11 15 10 8 8 10 8 7 8 8 10 9 8 7 7 7
10 11 12 13 15 15 15 14 12 12 13 12 12 11 11 11 11 12 13 15 17 23 24 22 19 14 17 20 19 19 18 18 17 12 8 9 10 10 9 9 8 7 7
Wind_Direction
288 191 180 178 176 180 184 184 187 189 189 194 198 202 208 207 204 201 200 199 199 199 200 203 200 197 196 197 195 191 199 204 186 201 261 257 238 235 230 227 227 231 235
7 41 141 160 172 180 187 188 190 191 195 200 201 201 201 207 210 207 207 203 202 201 204 204 202 200 199 199 198 194 192 198 186 176 191 268 271 237 229 215 215 222 227
28 28 105 158 172 184 190 195 193 193 195 193 186 191 198 206 212 213 213 209 206 205 206 207 205 203 203 206 203 197 194 201 197 186 172 194 227 260 240 219 219 219 217
47 41 48 163 187 196 192 194 194 195 193 190 197 198 207 216 218 214 213 211 212 211 210 208 208 208 208 209 207 204 201 192 199 202 208 200 172 181 255 268 231 223 226
50 46 44 216 207 195 190 193 196 200 195 196 202 209 219 225 222 216 216 215 215 216 214 212 211 213 213 212 209 207 204 204 203 196 187 212 218 196 196 240 244 241 233
42 35 34 32 245 186 185 188 199 209 203 203 207 212 222 223 223 222 222 220 218 217 217 215 215 216 217 215 213 210 209 209 209 207 197 184 186 202 204 221 227 233 235
43 30 24 13 358 210 198 195 203 216 213 211 214 218 222 223 228 229 228 225 225 222 218 216 218 219 219 215 211 214 215 212 210 212 213 208 207 186 191 208 221 228 234
48 39 27 15 8 8 199 201 211 221 219 219 222 224 224 226 233 233 232 233 232 227 215 213 217 218 216 217 214 218 219 216 217 216 214 215 212 206 200 201 203 229 236
54 43 32 26 19 19 5 219 221 225 223 223 225 227 228 229 233 233 234 239 240 232 217 212 214 215 215 216 215 221 220 218 218 219 216 217 214 209 208 205 201 208 230
50 38 25 15 12 15 355 265 229 233 231 226 226 232 230 231 233 233 236 237 238 234 225 218 215 214 215 215 216 221 219 219 220 217 216 217 215 211 209 212 213 215 225
46 29 8 358 2 0 345 318 268 251 249 244 241 242 241 238 236 237 239 239 238 235 231 225 220 218 217 216 218 221 217 220 221 218 217 218 211 211 212 214 216 221 223
40 13 356 353 353 345 332 323 305 288 270 259 256 254 252 247 244 245 244 240 239 237 235 230 227 224 220 217 218 221 219 219 220 218 216 217 213 213 213 215 218 222 223
26 1 353 344 339 333 327 323 326 322 305 287 276 272 268 261 255 254 251 246 243 242 238 233 233 230 225 220 220 220 220 220 220 217 217 216 212 215 216 216 220 224 228
346 345 339 330 327 322 320 325 329 326 323 311 295 285 279 273 269 265 261 256 249 246 243 239 237 233 228 223 220 219 220 220 220 218 217 216 215 216 216 218 220 221 225
324 337 337 325 320 320 322 326 323 324 324 312 300 290 286 283 280 277 271 265 258 253 247 244 242 236 231 228 222 219 220 220 221 220 219 219 220 221 220 220 219 218 223
327 338 327 319 318 319 318 319 314 309 312 305 295 292 291 288 283 280 277 272 266 259 252 247 244 240 238 242 239 231 225 223 222 223 221 222 228 230 228 228 225 220 220
336 325 319 318 316 313 312 308 298 304 307 296 290 288 285 282 279 279 278 273 269 264 257 252 246 245 242 245 245 242 231 224 225 224 222 225 227 228 229 234 235 234 232
327 322 319 315 309 305 303 298 303 306 299 292 288 284 279 277 277 275 274 272 269 265 261 257 251 249 248 250 250 247 239 227 224 222 221 224 226 225 222 223 230 236 239
321 317 313 310 308 306 308 316 311 303 296 290 285 281 278 279 280 278 277 275 273 270 264 260 253 252 252 252 252 249 240 232 226 222 221 223 225 229 227 222 226 232 237
317 313 311 310 309 310 323 318 304 297 291 287 285 288 290 288 285 283 282 279 274 273 270 266 258 255 251 252 253 251 239 234 231 226 223 225 226 228 229 224 222 228 231
310 312 312 308 306 315 316 302 295 291 290 293 297 296 292 288 287 287 284 282 279 277 273 271 266 257 254 257 255 252 238 231 232 231 226 223 229 229 228 227 222 230 229
313 315 313 309 308 307 304 300 297 296 297 298 297 294 292 292 293 290 288 284 282 281 278 277 275 262 257 259 257 254 249 240 233 233 227 222 226 229 229 230 230 233 236
313 316 315 308 303 301 300 298 298 300 301 300 298 297 296 294 292 292 293 292 287 283 282 278 278 273 254 253 259 258 254 249 239 232 230 224 226 226 229 231 232 233 230
314 313 309 304 302 300 294 291 297 302 302 300 299 297 298 297 294 291 290 289 287 284 282 281 279 277 267 251 245 245 254 253 247 243 235 228 225 221 218 224 234 227 219
304 303 299 296 297 298 297 298 299 301 300 298 297 298 295 294 295 290 287 286 276 277 282 279 274 277 276 264 258 250 238 233 239 230 220 212 211 211 206 206 212 212 218
298 298 295 293 297 300 299 299 298 299 300 301 299 298 296 296 295 295 294 287 285 291 289 285 281 274 271 275 270 265 257 248 240 232 222 214 210 210 206 204 206 209 215
Height
1471 1472 1473 1476 1480 1483 1486 1488 1489 1491 1494 1495 1496 1497 1498 1501 1502 1503 1505 1506 1508 1510 1511 1512 1514 1515 1515 1515 1517 1518 1518 1518 1519 1518 1516 1515 1515 1514 1514 1513 1513 1512 1511
1470 1471 1472 1474 1477 1479 1481 1483 1484 1485 1487 1488 1490 1492 1494 1495 1496 1498 1498 1499 1499 1501 1502 1504 1505 1506 1507 1507 1508 1509 1509 1510 1511 1511 1510 1508 1506 1504 1505 1505 1505 1505 1504
1472 1472 1473 1474 1475 1476 1477 1478 1479 1480 1481 1483 1486 1487 1488 1488 1488 1488 1488 1490 1491 1492 1493 1494 1495 1496 1497 1497 1498 1499 1500 1501 1502 1501 1503 1501 1497 1498 1496 1496 1497 1498 1497
1474 1474 1474 1474 1473 1473 1473 1474 1475 1476 1476 1478 1479 1479 1478 1477 1477 1480 1481 1483 1484 1484 1484 1485 1486 1486 1487 1487 1488 1490 1490 1492 1491 1491 1491 1492 1493 1493 1490 1489 1489 1489 1489
1475 1475 1474 1473 1472 1471 1470 1470 1471 1471 1472 1472 1472 1473 1472 1472 1474 1475 1475 1474 1475 1475 1475 1475 1476 1476 1476 1476 1478 1478 1479 1480 1481 1481 1481 1482 1483 1483 1482 1480 1480 1481 1480
1476 1475 1474 1472 1471 1469 1468 1467 1467 1466 1467 1467 1467 1467 1466 1467 1467 1467 1467 1467 1466 1466 1465 1466 1465 1465 1465 1466 1467 1468 1469 1469 1470 1471 1471 1470 1471 1470 1471 1470 1470 1470 1472
1476 1475 1473 1471 1469 1467 1466 1464 1463 1463 1463 1462 1462 1461 1461 1461 1461 1460 1460 1460 1458 1457 1455 1456 1456 1455 1455 1456 1457 1458 1458 1458 1458 1459 1459 1460 1459 1461 1462 1463 1461 1461 1462
1475 1474 1473 1471 1469 1467 1464 1463 1461 1460 1459 1458 1457 1457 1456 1455 1454 1453 1453 1452 1450 1449 1449 1448 1446 1445 1446 1446 1447 1447 1447 1447 1447 1447 1448 1449 1450 1451 1452 1453 1455 1453 1453
1474 1473 1472 1471 1468 1466 1464 1462 1460 1458 1457 1455 1454 1452 1451 1450 1448 1447 1446 1444 1443 1443 1442 1440 1438 1436 1436 1436 1436 1435 1435 1435 1435 1436 1437 1438 1440 1442 1443 1444 1446 1447 1443
1473 1472 1472 1470 1468 1466 1464 1461 1459 1457 1455 1452 1450 1448 1446 1444 1442 1440 1437 1435 1434 1434 1433 1431 1428 1427 1425 1425 1425 1423 1424 1424 1424 1425 1427 1427 1430 1432 1434 1435 1436 1436 1435
1472 1472 1471 1470 1468 1466 1463 1460 1458 1455 1452 1449 1446 1444 1441 1438 1435 1433 1430 1428 1425 1424 1422 1421 1419 1417 1415 1414 1413 1412 1413 1413 1413 1415 1416 1416 1419 1421 1423 1425 1426 1426 1426
1471 1471 1470 1468 1466 1464 1461 1458 1455 1452 1449 1446 1442 1439 1436 1432 1429 1426 1423 1420 1417 1415 1413 1411 1408 1406 1404 1403 1401 1400 1400 1400 1401 1402 1404 1405 1409 1410 1413 1414 1415 1416 1416
1470 1469 1467 1466 1464 1461 1459 1456 1452 1449 1445 1441 1438 1434 1430 1426 1423 1419 1415 1412 1408 1405 1403 1401 1398 1396 1394 1393 1391 1390 1390 1389 1389 1391 1392 1394 1398 1399 1401 1403 1405 1406 1407
1468 1466 1465 1463 1461 1458 1455 1451 1448 1444 1440 1436 1432 1428 1424 1420 1415 1411 1407 1403 1400 1396 1393 1390 1388 1385 1384 1382 1381 1380 1379 1379 1379 1380 1381 1384 1386 1388 1391 1393 1395 1397 1398
1465 1463 1461 1459 1457 1454 1450 1447 1443 1439 1435 1430 1426 1421 1417 1412 1407 1403 1399 1395 1391 1387 1384 1380 1377 1375 1373 1371 1370 1369 1368 1368 1369 1370 1371 1373 1375 1378 1381 1383 1385 1387 1388
1462 1460 1458 1455 1452 1449 1445 1441 1437 1433 1429 1424 1419 1414 1409 1404 1399 1394 1390 1385 1381 1378 1374 1370 1367 1364 1362 1361 1360 1359 1357 1357 1357 1358 1360 1362 1366 1368 1371 1373 1375 1376 1377
1459 1457 1454 1451 1447 1444 1440 1435 1431 1427 1422 1417 1411 1406 1400 1395 1390 1386 1381 1376 1372 1368 1364 1360 1357 1353 1351 1350 1349 1349 1347 1346 1345 1347 1349 1351 1353 1357 1360 1363 1366 1367 1368
1456 1453 1449 1446 1442 1438 1434 1430 1425 1420 1415 1409 1403 1398 1393 1387 1382 1377 1372 1368 1363 1359 1355 1351 1348 1344 1341 1341 1339 1339 1338 1335 1334 1336 1338 1340 1343 1347 1350 1353 1355 1356 1358
1452 1448 1445 1441 1437 1433 1429 1424 1419 1413 1407 1402 1396 1391 1386 1380 1375 1369 1364 1360 1355 1350 1346 1342 1338 1334 1331 1331 1330 1329 1327 1326 1325 1326 1328 1330 1332 1336 1341 1343 1344 1346 1347
1448 1444 1440 1436 1432 1428 1423 1417 1411 1406 1400 1395 1390 1385 1379 1373 1367 1362 1357 1352 1347 1342 1337 1333 1329 1326 1322 1321 1320 1320 1318 1316 1316 1317 1318 1320 1323 1326 1330 1333 1335 1336 1337
1442 1439 1435 1431 1427 1423 1417 1410 1404 1399 1393 1388 1382 1377 1372 1366 1360 1354 1349 1344 1338 1333 1328 1324 1320 1317 1314 1312 1311 1310 1309 1307 1307 1308 1309 1310 1314 1318 1321 1324 1326 1327 1330
1437 1434 1430 1426 1422 1417 1411 1403 1397 1392 1387 1381 1375 1369 1363 1358 1353 1347 1341 1336 1331 1325 1320 1315 1310 1307 1305 1303 1301 1301 1300 1300 1299 1299 1301 1303 1306 1310 1313 1316 1318 1321 1323
1433 1429 1425 1420 1415 1410 1405 1397 1390 1385 1379 1373 1367 1361 1355 1350 1345 1339 1333 1328 1323 1318 1312 1307 1302 1298 1296 1295 1293 1292 1291 1291 1292 1291 1294 1296 1299 1302 1306 1309 1311 1314 1315
1428 1424 1419 1413 1407 1402 1397 1391 1384 1378 1372 1365 1359 1353 1347 1342 1337 1332 1327 1321 1316 1310 1305 1300 1295 1291 1288 1286 1285 1283 1283 1283 1284 1285 1286 1290 1292 1295 1298 1301 1304 1305 1307
1423 1418 1413 1406 1400 1394 1389 1384 1378 1371 1364 1358 1352 1346 1340 1334 1328 1323 1319 1314 1309 1305 1299 1293 1289 1285 1280 1279 1278 1276 1275 1275 1276 1278 1280 1282 1285 1288 1290 1293 1295 1298 1299
1417 1411 1406 1400 1393 1387 1381 1376 1371 1365 1358 1350 1344 1338 1332 1327 1321 1315 1310 1306 1302 1297 1293 1288 1283 1278 1275 1272 1271 1270 1269 1270 1271 1272 1273 1275 1278 1280 1283 1286 1288 1290 1292